Regional Weather Roundup
Issued by NWS

Home | Current Version | Previous Version | Graphics & Text | Print | Product List | Glossary On
Versions: 1 2 3 4 5 6 7 8 9 10 11 12 13 14 15 16 17 18 19 20 21 22 23 24 25 26 27 28 29 30 31 32 33 34 35 36 37 38 39 40 41 42 43 44 45 46 47 48
000
ASUS45 KSLC 200210
RWRUT

UTAH REGIONAL WEATHER ROUNDUP
NATIONAL WEATHER SERVICE SALT LAKE CITY UT
800 PM MDT FRI SEP 19 2014

UTZ001>011-023>025-200300-

NORTHERN UTAH

CITY           SKY/WX    TMP DP  RH WIND       PRES   REMARKS
HILL AFB       CLEAR     76  44  32 N3        30.07R
LOGAN          CLEAR     70  55  59 CALM      30.05S
OGDEN          CLEAR     74  46  36 CALM      30.04R
PROVO AIRPORT  PTCLDY    73  55  53 NW13      30.04R
SALT LAKE CITY PTCLDY    72  55  55 W7        30.03R
VERNAL         MOCLDY    71  52  50 CALM      30.06R
WENDOVER       CLEAR     75  43  31 CALM      30.04R
HEBER CITY     CLEAR     70  50  49 W3        30.10R
WEST JORDAN    CLEAR     72  48  43 W5        30.06R

$$

UTZ012>022-026-027-200300-

SOUTHERN UTAH

CITY           SKY/WX    TMP DP  RH WIND       PRES   REMARKS
BRYCE CANYON   MOCLDY    63  46  54 W3        30.23R
CEDAR CITY     CLEAR     70  47  43 CALM      30.06R
MILFORD        CLEAR     77  43  29 N7        30.02R
MOAB/CYNLANDS  CLEAR     80  38  22 NW6       29.94R
PRICE          PTCLDY    76  43  30 NW3       30.09R
ST GEORGE      CLEAR     90  46  22 W8        29.88R
KANAB            N/A     75  50  41 SE5       30.04R

$$

REGIONAL REPORTS     COLORADO/ARIZONA

CITY           SKY/WX    TMP DP  RH WIND       PRES   REMARKS
CRAIG, CO      MOCLDY    61  47  59 S3        30.12R
GRAND JUNCTION CLEAR     77  44  30 N7        29.97R
RIFLE          PTCLDY    76  44  32 W3        30.04R
MONTROSE       CLEAR     73  48  41 S6        30.07R
CORTEZ         CLEAR     73  45  36 N6        30.06R
PAGE, AZ       PTCLDY    86  46  24 NE3       29.95R
GRAND CANYON   MOCLDY    62  57  83 NE3       30.15F
KINGMAN        CLEAR     80  42  25 SW9       29.94R
FLAGSTAFF        N/A     59  56  89 MISG      30.19S

$$

REGIONAL REPORTS    NEVADA/IDAHO/WYOMING

CITY           SKY/WX    TMP DP  RH WIND       PRES   REMARKS
LAS VEGAS, NV  PTCLDY    92  37  14 S13       29.78R
ELY            CLEAR     67  34  29 S8        30.11R
ELKO           CLEAR     75  39  27 VRB5      30.05R
POCATELLO, ID  CLEAR     68  42  38 SW10      30.09R
BURLEY         CLEAR     63  47  55 SW7       30.05R
EVANSTON, WY   CLEAR     63  39  41 NW9       30.22R
ROCK SPRINGS   CLEAR     66  36  32 W13       30.17R

$$


USA.gov is the U.S. government's official web portal to all federal, state and local government web resources and services.